This is the latest recevied weather packets stored in our database for station/object AA6HF. If no packets are shown the sender has not sent any weather packets the latest 10 day(s).
| Time | Temp. | Humidity | Pressure | Rain* | Wind** | Luminosity | Snow |
|---|---|---|---|---|---|---|---|
| 1787855328 | 41.67° C | 26% | 1008.7 hPa | 0 mm | - | - | - |
| 1787855028 | 41.11° C | 26% | 1008.7 hPa | 0 mm | - | - | - |
| 1787854728 | 40.56° C | 27% | 1008.7 hPa | 0 mm | - | - | - |
| 1787854434 | 40.56° C | 27% | 1008.6 hPa | 0 mm | - | - | - |
| 1787854128 | 40° C | 28% | 1008.5 hPa | 0 mm | - | - | - |
| 1787853828 | 40° C | 27% | 1008.6 hPa | 0 mm | - | - | - |
| 1787853528 | 41.11° C | 26% | 1008.5 hPa | 0 mm | - | - | - |
| 1787853228 | 41.11° C | 26% | 1008.6 hPa | 0 mm | - | - | - |
| 1787852928 | 41.11° C | 23% | 1008.5 hPa | 0 mm | - | - | - |
| 1787852628 | 40° C | 26% | 1008.4 hPa | 0 mm | - | - | - |
| 1787852328 | 40° C | 24% | 1008.5 hPa | 0 mm | - | - | - |
| 1787852028 | 40° C | 24% | 1008.5 hPa | 0 mm | - | - | - |
| 1787851729 | 40.56° C | 25% | 1008.4 hPa | 0 mm | - | - | - |
| 1787851428 | 41.11° C | 25% | 1008.4 hPa | 0 mm | - | - | - |
| 1787851129 | 41.11° C | 25% | 1008.4 hPa | 0 mm | - | - | - |
| 1787850829 | 40° C | 26% | 1008.3 hPa | 0 mm | - | - | - |
| 1787850529 | 40° C | 26% | 1008.3 hPa | 0 mm | - | - | - |
| 1787850229 | 39.44° C | 26% | 1008.4 hPa | 0 mm | - | - | - |
| 1787849929 | 39.44° C | 29% | 1008.4 hPa | 0 mm | - | - | - |
| 1787849629 | 38.89° C | 30% | 1008.3 hPa | 0 mm | - | - | - |
| 1787849329 | 38.89° C | 31% | 1008.3 hPa | 0 mm | - | - | - |
| 1787849029 | 38.33° C | 31% | 1008.3 hPa | 0 mm | - | - | - |
| 1787848729 | 37.78° C | 32% | 1008.3 hPa | 0 mm | - | - | - |
| 1787848429 | 37.78° C | 31% | 1008.4 hPa | 0 mm | - | - | - |
| 1787848129 | 37.78° C | 33% | 1008.5 hPa | 0 mm | - | - | - |
* Rain latest hour (hover to see other rain measurements)
** Current wind speed in m/s (hover to see current wind gust speed)